[[{"header":{"parameterUnit":"m.s-1","parameterCategory":1,"la1":30.2991,"la2":30.254,"lo1":-89.0895,"lo2":-89.0444,"dy":0.0017,"dx":0.0017,"nx":28,"ny":28,"refTime":"2025-03-30T09:00:00:Z","depth":0,"parameterNumber":2,"parameterNumberName":"U-component_of_WINDS"},"data":[0,0,0,0,0,0,0,0,0,0,0,0,0,0,0,0,0,0,0,0,0,0,0,0,0,0,0,0,0,0,0,0,0,0,0,0,0,0,0,0,0,0,0,0,0,0,0,0,0,0,0,0,0,0,0,0,0,0,2.8827,2.8828,0,2.8885,2.8886,2.8886,2.8847,2.8845,2.8843,2.8842,2.8905,2.8908,2.8911,0,0,0,0,0,0,0,0,0,0,0,0,0,2.8686,2.8688,2.8827,2.8828,2.8828,2.8885,2.8886,2.8886,2.8847,2.8845,2.8843,2.8841,2.8904,2.8908,2.8912,0,0,0,0,0,0,0,0,0,0,0,0,0,2.8746,2.8689,2.8827,2.8815,2.8815,2.8885,2.8886,2.8887,2.8848,2.8845,2.8842,2.884,2.8902,2.8907,2.8912,2.8997,0,0,2.8927,2.893,0,0,0,0,0,0,0,0,2.8742,2.8751,2.8816,2.8816,2.8816,2.8856,2.8859,2.8924,2.8848,2.8836,2.8842,2.8839,2.8891,2.8897,2.8914,2.9,2.9003,2.8928,2.8931,2.8933,2.8935,0,0,0,0,0,0,0,2.8738,2.8748,2.885,2.8817,2.8817,2.8809,2.8814,2.8871,2.8878,2.8836,2.8834,2.8841,2.889,2.8909,2.8915,2.9004,2.8928,2.8932,2.8935,2.8937,2.9164,2.9167,0,0,0,0,0,0,2.8735,2.8745,2.8848,2.8852,2.8772,2.8814,2.882,2.8846,2.8877,2.8879,2.8843,2.8839,2.8902,2.8909,2.8917,2.9019,2.8933,2.8938,2.8941,2.9161,2.9164,2.9168,0,0,0,0,0,0,2.8732,2.8744,2.8846,2.8798,2.881,2.8819,2.8849,2.8848,2.8867,2.8882,2.8883,2.8861,2.89,2.891,2.8977,2.9021,2.894,2.8945,2.9157,2.9162,2.9166,2.9224,0,0,0,0,0,0,2.8728,2.8743,2.8775,2.8799,2.8813,2.8904,2.8851,2.8852,2.8875,2.887,2.8899,2.8901,2.8898,2.897,2.8982,2.9026,2.8949,2.9153,2.9159,2.9165,2.9218,2.923,2.924,0,0,0,0,0,2.8723,2.8789,2.8777,2.8789,2.8852,2.8907,2.8915,2.891,2.8879,2.8911,2.8921,2.89,2.9014,2.8977,2.8991,2.9037,2.9151,2.9158,2.9164,2.9213,2.9228,2.924,0,0,0,0,0,0,2.8772,2.8792,2.8778,2.8854,2.8879,2.89,2.8941,2.8925,2.896,2.8954,2.8947,2.8954,2.9025,2.9037,2.8996,2.9121,2.9078,2.9087,2.911,2.9124,2.9135,2.9131,2.8953,0,0,0,0,0,2.8791,2.8833,2.8849,2.8914,2.8927,2.8932,2.8956,2.895,2.8975,2.8986,2.9001,2.9028,2.9069,2.9097,2.9136,2.922,2.9226,2.9258,2.9269,2.9278,2.9287,2.9333,2.9347,2.919,2.919,2.919,0,0,2.8832,2.8848,2.8875,2.8925,2.8943,2.8988,2.8941,2.899,2.9024,2.8994,2.9059,2.907,2.91,2.9176,2.921,2.9189,2.9331,2.9286,2.9293,2.9297,2.9341,2.9356,2.9369,2.9194,2.9194,2.9193,0,0,2.8929,2.8945,2.9002,2.9021,2.9049,2.9052,2.9066,2.909,2.9096,2.9161,2.9139,2.918,2.9251,2.9274,2.9294,2.9401,2.9383,2.9414,2.9471,2.9515,2.9528,2.9539,2.9578,2.9592,2.9422,2.9422,2.9423,0,2.8976,2.9042,2.9033,2.9084,2.9107,2.9081,2.9139,2.9159,2.9199,2.9216,2.9191,2.9281,2.9299,2.938,2.9406,2.9424,2.944,2.9411,2.9527,2.9537,2.9548,2.9585,2.9599,2.9426,2.9426,2.9425,2.9425,0,2.9099,2.9145,2.9188,2.9226,2.9254,2.9308,2.9309,2.9339,2.933,2.9336,2.9403,2.9423,2.9467,2.9485,2.9478,2.9566,2.9552,2.9527,2.9483,2.9566,2.9601,2.9615,2.9431,2.943,2.9429,2.9428,0,0,2.9229,2.9262,2.9278,2.9296,2.9325,2.9361,2.9415,2.9456,2.9482,2.9511,2.9557,2.9618,2.9595,2.9619,2.9613,2.9653,2.9737,2.9623,2.9624,2.9645,2.9837,2.9856,2.9873,2.9725,2.9728,2.973,2.9835,0,2.9329,2.9421,2.9416,2.9503,2.9546,2.9522,2.9569,2.9593,2.96,2.9638,2.9646,2.969,2.9656,2.9671,2.9708,2.9719,2.9776,2.9711,2.9769,2.9771,2.9763,2.9891,2.9911,3.0009,2.9848,2.985,2.9852,0,2.9458,2.949,2.9582,2.9605,2.9623,2.9665,2.9703,2.974,2.9767,2.9769,2.9796,2.9784,2.984,2.9794,2.9871,2.9827,2.985,2.9859,2.9863,2.9869,2.9817,2.9901,3.004,3.0055,2.9873,2.9872,2.987,0,2.9544,2.9611,2.9675,2.969,2.9719,2.975,2.9764,2.9788,2.9813,2.9847,2.9864,2.9903,2.9926,2.9957,2.9957,2.9923,3.0036,2.9989,3.004,3.004,3.0066,3.0064,3.0212,3.0079,3.0079,3.0079,3.0078,0,2.9657,2.9714,2.9714,2.9754,2.9818,2.9811,2.9875,2.9885,2.9907,2.9949,2.9931,2.9971,2.9967,3.0008,3.0008,3.0073,3.0083,3.0087,3.0087,3.0089,3.0089,3.0105,3.0099,3.0083,3.0082,3.0081,3.008,0,2.9765,2.9767,2.9835,2.9857,2.9864,2.991,2.9929,2.9967,2.9972,3.0026,3.0038,3.0047,3.0094,3.0096,3.015,3.0151,3.0229,3.0221,3.022,3.0219,3.027,3.0266,3.0434,3.0456,3.0308,3.031,3.0311,0,2.9837,2.9881,2.9907,2.9933,2.9949,2.9991,3.0017,3.0013,3.0041,3.0075,3.0109,3.0154,3.019,3.0266,3.0278,3.032,3.0313,3.0369,3.0319,3.0321,3.0315,3.0313,3.0318,3.0379,3.038,3.0382,3.0383,0,2.9966,2.9964,3.0002,3.004,3.0072,3.0102,3.013,3.0153,3.0151,3.0184,3.0231,3.0259,3.0314,3.036,3.04,3.0415,3.04,3.0398,3.0412,3.0416,3.0414,3.0417,3.0248,3.0395,3.0394,3.0393,3.0392,3.0392,3.0059,3.0097,3.0121,3.0164,3.0184,3.0211,3.0248,3.0258,3.0297,3.0341,3.0336,3.0389,3.0416,3.0468,3.0487,3.0529,3.051,3.053,3.0536,3.0541,3.0547,3.0407,3.0536,3.0536,3.0536,3.0535,3.0535,0,3.0187,3.0201,3.0241,3.028,3.0314,3.0295,3.0326,3.0356,3.0402,3.0428,3.0463,3.0518,3.0562,3.0578,3.0621,3.0651,3.0645,3.0663,3.0661,3.0665,3.0561,3.0545,3.0667,3.0667,3.0667,3.0667,3.0667,3.0667,3.0258,3.0321,3.0323,3.0397,3.0411,3.0463,3.0482,3.0507,3.0527,3.0589,3.0626,3.0635,3.0657,3.0701,3.0741,3.0744,3.0762,3.0783,3.0783,3.0686,3.0672,3.066,3.0645,3.0786,3.0786,3.0884,3.0885,3.0886]},{"header":{"parameterUnit":"m.s-1","parameterCategory":1,"la1":30.2991,"la2":30.254,"lo1":-89.0895,"lo2":-89.0444,"dy":0.0017,"dx":0.0017,"nx":28,"ny":28,"refTime":"2025-03-30T09:00:00:Z","depth":0,"parameterNumber":3,"parameterNumberName":"V-component_of_WINDS"},"data":[0,0,0,0,0,0,0,0,0,0,0,0,0,0,0,0,0,0,0,0,0,0,0,0,0,0,0,0,0,0,0,0,0,0,0,0,0,0,0,0,0,0,0,0,0,0,0,0,0,0,0,0,0,0,0,0,0,0,5.0198,5.0199,0,5.0325,5.0326,5.0328,5.0332,5.033,5.0329,5.0327,5.0453,5.0458,5.0463,0,0,0,0,0,0,0,0,0,0,0,0,0,4.9956,4.9961,5.0198,5.0199,5.0201,5.0325,5.0326,5.0328,5.0332,5.033,5.0328,5.0326,5.0452,5.0457,5.0463,0,0,0,0,0,0,0,0,0,0,0,0,0,5.007,4.9962,5.0198,5.0218,5.0221,5.0324,5.0326,5.0328,5.0332,5.033,5.0328,5.0326,5.045,5.0457,5.0464,5.0554,0,0,5.0486,5.0489,0,0,0,0,0,0,0,0,5.0063,5.0079,5.0213,5.0217,5.022,5.031,5.0287,5.0404,5.0333,5.029,5.0327,5.0324,5.0407,5.0418,5.0447,5.056,5.0566,5.0487,5.0491,5.0494,5.0496,0,0,0,0,0,0,0,5.0055,5.0073,5.0248,5.0215,5.022,5.022,5.0233,5.031,5.036,5.0293,5.0294,5.0309,5.0409,5.044,5.045,5.0567,5.0486,5.0493,5.0497,5.05,5.0763,5.0766,0,0,0,0,0,0,5.0044,5.0067,5.0244,5.0252,5.0135,5.0226,5.0241,5.0284,5.0359,5.0368,5.0311,5.0309,5.0428,5.0441,5.0454,5.0567,5.0494,5.0501,5.0505,5.0761,5.0764,5.0767,0,0,0,0,0,0,5.0039,5.006,5.0239,5.016,5.0182,5.0233,5.028,5.0287,5.0318,5.0372,5.0381,5.0334,5.0427,5.0444,5.053,5.0571,5.0504,5.051,5.0757,5.0762,5.0765,5.0791,0,0,0,0,0,0,5.0032,5.0058,5.0093,5.016,5.0187,5.0314,5.0283,5.0291,5.0331,5.033,5.0396,5.0405,5.0427,5.0519,5.0537,5.058,5.0516,5.0754,5.0759,5.0764,5.0787,5.0796,5.0803,0,0,0,0,0,5.0023,5.0094,5.0095,5.0117,5.0232,5.0316,5.0331,5.0356,5.0334,5.037,5.0405,5.0403,5.0563,5.0528,5.0548,5.0594,5.0752,5.0758,5.0764,5.0784,5.0794,5.0803,0,0,0,0,0,0,5.0029,5.0103,5.0105,5.02,5.0252,5.0317,5.0363,5.0366,5.0424,5.042,5.0447,5.0462,5.0548,5.0579,5.0539,5.0686,5.0655,5.0665,5.0663,5.0673,5.0681,5.0673,5.0522,0,0,0,0,0,5.0042,5.0105,5.0166,5.0244,5.027,5.0312,5.0349,5.0364,5.0418,5.044,5.0481,5.0533,5.0595,5.0635,5.0696,5.0791,5.0806,5.0832,5.084,5.0846,5.0856,5.091,5.0923,5.0787,5.0787,5.0787,0,0,5.0068,5.0117,5.0154,5.0246,5.0288,5.0353,5.033,5.0398,5.0447,5.045,5.0535,5.0567,5.0626,5.0718,5.076,5.0746,5.0896,5.0854,5.0859,5.0865,5.0918,5.093,5.0942,5.0791,5.079,5.0789,0,0,5.015,5.0192,5.0263,5.0306,5.037,5.0398,5.0415,5.0479,5.0501,5.0587,5.0592,5.0648,5.0754,5.0797,5.0833,5.0932,5.0932,5.095,5.0993,5.1046,5.1057,5.1066,5.1104,5.1116,5.0959,5.0959,5.0959,0,5.0174,5.0273,5.0298,5.0368,5.0409,5.0416,5.0488,5.0528,5.0608,5.0636,5.0619,5.0754,5.0794,5.0897,5.0921,5.0949,5.097,5.0944,5.1053,5.1063,5.1073,5.1108,5.1122,5.0961,5.0961,5.096,5.096,0,5.0301,5.0369,5.0418,5.0498,5.0543,5.0613,5.065,5.0693,5.0703,5.0733,5.082,5.0869,5.094,5.0965,5.0975,5.107,5.106,5.1048,5.1017,5.1087,5.1122,5.1135,5.0964,5.0963,5.0962,5.0962,0,0,5.039,5.0484,5.0502,5.0539,5.0611,5.0664,5.0734,5.0805,5.0843,5.0897,5.0958,5.1048,5.1038,5.1078,5.1093,5.1139,5.1217,5.1122,5.1124,5.114,5.1326,5.1337,5.1352,5.1217,5.122,5.1222,5.1322,0,5.0481,5.0609,5.0635,5.0745,5.0809,5.0817,5.0879,5.0929,5.0958,5.1016,5.1047,5.1112,5.1092,5.1117,5.1163,5.1198,5.1255,5.1191,5.1274,5.1277,5.1261,5.137,5.1381,5.1473,5.1335,5.1338,5.1339,0,5.0605,5.0665,5.0783,5.0848,5.0876,5.0931,5.0999,5.1054,5.1111,5.1129,5.1175,5.1185,5.1259,5.1224,5.1326,5.1281,5.1316,5.1339,5.1343,5.1353,5.1314,5.1385,5.1503,5.1518,5.136,5.1359,5.1357,0,5.0661,5.0771,5.0857,5.0888,5.0965,5.1004,5.1038,5.1093,5.1135,5.1194,5.1221,5.1287,5.1323,5.1373,5.1401,5.1373,5.1502,5.1468,5.1519,5.1519,5.1548,5.1546,5.1675,5.1567,5.1566,5.1566,5.1566,0,5.0762,5.0834,5.0884,5.0936,5.1018,5.1046,5.1125,5.1158,5.1207,5.1266,5.1275,5.133,5.1362,5.1421,5.1443,5.1525,5.1541,5.1558,5.1563,5.1558,5.1557,5.1583,5.1579,5.157,5.1569,5.1568,5.1568,0,5.084,5.0876,5.097,5.1036,5.1054,5.1111,5.1168,5.1219,5.1248,5.1322,5.1341,5.1386,5.1457,5.1489,5.1575,5.159,5.1684,5.1684,5.1666,5.1668,5.1718,5.1714,5.1871,5.1894,5.1768,5.1769,5.177,0,5.0903,5.0959,5.1032,5.1073,5.1108,5.1174,5.1217,5.1246,5.1291,5.1361,5.1404,5.1475,5.1534,5.1646,5.1686,5.1752,5.1755,5.1805,5.1765,5.1759,5.1759,5.1756,5.1763,5.1813,5.1815,5.1816,5.1816,0,5.1011,5.1027,5.109,5.116,5.1211,5.1267,5.1322,5.1354,5.1392,5.1441,5.1515,5.156,5.165,5.1721,5.179,5.1823,5.1827,5.1829,5.1844,5.1841,5.183,5.1839,5.1688,5.1825,5.1824,5.1824,5.1823,5.1823,5.1085,5.1136,5.1197,5.1267,5.1311,5.1362,5.1415,5.1451,5.1513,5.159,5.1602,5.1681,5.1737,5.1831,5.1867,5.1928,5.1916,5.1938,5.1944,5.195,5.1954,5.1818,5.194,5.194,5.194,5.194,5.194,0,5.1196,5.1236,5.13,5.1378,5.1433,5.1432,5.1493,5.1539,5.1608,5.1661,5.1719,5.1804,5.1873,5.1919,5.1988,5.2029,5.2032,5.2046,5.2045,5.2053,5.196,5.1941,5.2043,5.2043,5.2043,5.2043,5.2043,5.2042,5.1261,5.1349,5.1371,5.1481,5.1519,5.1598,5.1633,5.168,5.1723,5.1818,5.1876,5.1906,5.1956,5.203,5.2093,5.2105,5.2131,5.2146,5.2157,5.207,5.2059,5.2049,5.2031,5.2151,5.2151,5.2246,5.2246,5.2247]}]]